Theta_e
341 341 342 342 342 342 341 339 338 339 339 339 335 332 330 330 330 331 331 330 332 335 336 337 338 337 336 333 331 333 334 333 331 332 333 333 333 333 332 332 332 333 332 331 331 332 332 331 331 330 331 330 330 330 330 330 329 328 328 326 324 324 325 327 328 329 330 330 331 331 331 331 331 330 330 330 329 328 328 328 329 330 330 330 330
340 342 342 342 343 342 341 340 339 339 340 339 336 333 332 331 328 328 333 333 332 334 335 337 337 337 336 334 331 332 333 333 332 331 333 332 332 332 332 332 332 332 331 331 331 331 331 331 330 330 330 330 330 330 329 328 328 328 328 328 327 324 323 323 324 326 328 329 329 329 329 330 330 330 329 329 329 329 329 329 329 329 330 329 329
340 342 342 342 342 342 341 340 339 340 341 340 337 335 334 331 325 327 332 333 333 333 334 336 337 337 335 333 331 331 334 334 332 331 332 332 332 331 332 331 331 331 331 331 331 331 331 330 330 330 329 329 329 328 327 327 328 329 328 328 327 326 324 323 323 323 326 328 328 328 329 329 330 330 329 328 328 328 329 330 330 329 329 329 329
340 342 342 343 342 342 341 340 340 340 340 340 338 337 335 331 325 326 331 333 334 333 333 334 335 335 333 333 331 331 333 333 332 331 332 332 331 331 331 331 331 331 330 331 330 330 330 330 329 329 329 329 329 327 326 327 327 327 326 327 327 327 326 325 324 323 324 326 327 328 330 330 329 330 329 329 327 327 328 329 329 329 329 329 329
341 342 342 343 342 342 341 341 340 341 341 340 338 337 335 330 325 325 331 334 333 332 333 332 332 333 333 333 331 331 333 333 333 332 332 331 331 331 331 330 331 330 330 330 330 329 329 329 328 326 326 328 327 326 326 326 326 326 326 326 327 327 327 326 325 324 324 326 327 328 329 329 329 330 330 329 328 328 329 328 329 329 329 329 329
341 341 342 342 342 342 341 341 341 341 341 339 338 336 334 329 325 324 331 334 333 333 333 331 331 333 334 332 331 331 332 332 332 332 333 332 331 330 330 330 330 330 330 329 329 329 328 328 326 321 322 325 325 325 325 326 326 326 326 326 327 327 327 326 325 325 324 326 327 328 328 328 329 331 330 329 328 329 330 330 330 329 327 328 329
341 341 342 342 341 341 341 341 341 341 340 338 336 335 332 328 325 326 332 334 332 334 335 334 332 333 332 332 332 332 331 331 332 332 333 332 331 330 329 330 330 329 329 329 328 328 328 327 325 320 320 324 324 324 324 325 325 325 326 326 327 326 326 326 325 325 325 325 326 327 328 328 330 331 329 328 329 329 330 330 330 329 327 326 328
340 341 341 341 341 340 341 341 341 341 339 336 334 331 329 326 327 329 334 335 333 334 336 336 333 331 331 333 332 331 331 331 332 331 331 331 331 330 329 329 328 329 329 328 328 327 327 326 325 320 319 322 324 324 324 325 325 325 326 326 327 327 327 327 327 326 326 325 325 326 327 327 329 331 329 328 329 328 329 329 329 328 327 327 328
340 341 340 341 341 340 341 341 340 340 338 334 331 329 327 326 329 331 333 336 335 335 336 335 332 331 332 332 331 331 331 330 331 331 331 331 330 330 329 327 326 328 329 328 328 327 327 326 325 321 318 321 323 323 324 325 325 325 326 327 328 328 328 328 328 327 327 326 326 326 327 327 328 330 330 328 327 327 327 327 328 328 328 328 329
340 340 341 341 340 341 340 340 339 339 337 334 330 328 326 325 330 332 330 334 336 335 335 335 333 333 331 329 329 329 330 330 330 330 330 330 330 330 328 327 327 327 328 328 328 327 326 326 324 321 318 320 322 323 324 325 325 325 327 327 328 328 328 328 328 328 327 327 327 327 327 326 327 329 331 329 327 326 327 327 327 327 328 329 329
340 340 340 340 340 340 339 339 338 338 337 334 331 326 326 325 329 333 329 332 335 334 335 335 335 334 330 329 329 328 328 330 329 330 330 330 330 330 329 329 328 327 328 328 327 327 327 326 325 322 318 319 321 323 324 325 324 325 326 326 326 326 327 327 327 327 327 327 327 326 326 326 327 329 330 330 329 327 327 327 328 328 328 329 329
340 340 340 340 339 339 339 338 335 335 336 335 331 326 326 324 329 333 331 332 335 335 335 335 336 334 331 331 331 327 326 329 329 330 330 330 330 330 330 329 327 326 328 328 327 327 326 325 325 321 317 318 320 323 324 324 324 324 325 326 326 325 325 326 326 326 326 326 326 326 326 326 327 329 330 331 330 328 328 328 328 329 328 328 328
339 339 339 339 339 338 337 335 333 333 334 333 330 326 325 324 329 333 333 334 335 335 335 335 336 335 333 332 331 328 326 328 331 330 329 329 329 330 330 329 328 326 327 328 327 327 325 324 323 319 315 317 319 322 324 324 324 323 324 324 324 324 324 324 324 325 325 325 325 325 325 326 328 329 329 330 330 329 328 328 328 328 328 328 328
338 338 338 337 337 336 334 332 330 330 331 329 327 327 325 326 331 331 333 335 335 335 335 336 335 336 334 332 332 329 327 327 329 329 329 329 329 329 329 329 329 327 326 327 327 327 325 323 321 318 315 316 317 318 321 323 323 323 323 322 322 322 322 323 323 323 324 323 324 324 323 325 328 329 329 330 329 329 328 328 328 327 328 328 328
339 338 338 337 336 334 332 329 327 328 329 325 325 328 327 329 331 329 330 333 335 335 335 336 335 336 334 332 331 330 328 326 327 328 329 328 329 329 328 329 329 328 327 326 326 325 325 323 321 319 316 316 316 316 317 319 321 321 322 322 322 321 322 322 321 322 322 322 322 322 322 324 327 327 328 329 329 329 328 327 327 327 327 327 327
339 339 338 338 335 332 330 327 325 325 328 326 325 328 328 329 330 328 330 333 334 334 335 336 335 336 335 332 332 330 328 326 326 327 328 328 328 328 328 329 329 328 328 327 325 323 324 324 321 319 317 317 316 316 316 316 317 319 321 322 322 322 322 322 321 321 321 321 321 321 321 322 325 327 327 328 328 328 328 327 326 327 327 327 327
340 340 339 337 333 330 328 325 324 322 325 327 326 329 329 328 330 328 329 332 334 334 335 335 335 336 335 333 332 331 328 326 325 324 327 329 328 328 328 328 328 327 327 327 326 324 324 323 321 318 318 317 317 317 316 316 316 317 321 322 322 322 322 321 321 320 320 321 321 320 321 321 323 326 327 327 328 328 328 328 325 325 327 326 327
340 340 339 337 332 329 327 324 324 322 324 326 327 330 329 327 328 328 328 330 333 334 334 335 336 335 335 333 332 331 329 327 326 323 324 325 326 327 327 328 328 327 327 326 325 325 325 324 320 318 318 318 318 317 317 317 317 317 319 321 321 321 321 321 320 320 320 320 320 319 320 320 320 323 327 327 326 327 327 327 326 324 325 326 326
340 339 339 338 332 328 327 325 323 322 323 324 327 328 330 329 327 328 327 327 330 332 334 335 336 335 335 333 332 331 330 329 328 326 324 322 322 324 326 327 328 327 326 326 325 325 326 323 319 318 318 318 318 318 318 318 318 317 318 321 321 321 320 320 320 320 320 319 319 319 319 320 318 319 325 327 325 326 327 327 326 323 323 325 326
339 338 338 337 334 331 328 326 324 323 322 322 325 326 329 330 328 328 327 326 327 329 332 333 334 335 334 333 332 331 330 329 329 328 326 323 320 320 322 325 327 325 324 325 326 325 324 321 319 318 318 318 318 318 318 318 319 318 319 321 321 320 320 320 321 321 320 319 320 320 320 319 317 319 324 326 325 325 326 326 326 323 322 324 326
339 338 338 337 334 332 331 328 326 326 325 322 321 324 328 331 330 329 328 328 327 327 330 331 332 334 334 333 332 331 331 330 329 328 327 325 321 318 319 321 324 323 321 324 326 325 321 318 318 318 318 318 319 318 318 319 320 320 320 320 320 321 320 320 321 321 320 320 321 320 320 319 317 320 325 326 325 325 326 326 326 324 322 323 325
338 338 337 336 334 332 332 331 329 328 327 325 321 320 325 330 330 329 329 329 328 327 328 329 330 332 333 333 332 331 330 330 329 329 328 327 324 319 317 317 320 319 319 323 325 323 319 317 316 317 318 318 319 319 319 319 320 321 321 321 321 321 321 321 321 321 321 320 321 321 320 320 318 319 323 325 324 325 325 325 326 325 322 322 324
337 337 336 335 333 332 332 332 332 330 329 328 325 322 323 328 330 329 329 329 329 328 328 329 329 331 332 334 333 331 331 330 329 330 329 328 326 323 318 315 316 316 316 320 323 321 318 317 316 316 318 318 318 318 319 320 321 321 322 322 322 322 321 321 321 321 321 321 321 321 320 321 320 318 321 325 325 325 325 325 326 324 322 322 323
336 337 336 336 333 332 333 333 333 332 331 329 328 325 323 325 328 328 329 329 329 329 328 329 330 331 331 334 334 331 331 330 330 330 329 328 327 325 321 316 314 314 315 318 320 319 317 317 317 316 317 318 318 318 318 319 321 322 322 322 322 322 322 321 321 321 321 321 321 321 321 321 321 319 320 324 326 325 326 325 325 324 321 321 322
337 336 337 336 335 333 333 333 334 332 332 330 329 327 325 324 325 327 328 328 328 329 329 329 329 331 331 332 334 333 330 330 331 330 330 328 327 326 324 320 316 314 314 315 317 318 317 316 317 317 317 317 318 318 318 319 322 323 322 323 322 322 323 322 322 322 321 322 322 322 321 321 321 321 320 322 324 326 326 325 325 324 322 320 321
337 336 336 336 336 335 334 334 334 333 333 332 330 328 327 325 324 324 325 326 327 328 328 328 328 329 330 331 333 333 331 331 331 331 329 329 328 327 326 323 319 317 316 315 314 315 316 315 316 317 317 317 318 318 318 319 321 322 323 323 323 323 323 322 322 322 322 322 322 322 322 321 321 322 322 321 322 324 325 325 324 324 324 322 320
337 337 336 336 336 335 336 335 334 334 333 333 332 329 327 326 325 324 323 323 325 327 327 328 328 328 329 330 332 332 332 332 332 331 329 328 329 328 328 326 324 323 322 320 317 314 313 313 314 316 317 317 317 318 318 319 321 322 323 323 323 323 323 322 322 322 322 322 323 322 322 321 321 322 322 322 321 321 323 324 324 323 323 323 321
337 337 337 337 337 337 336 336 335 335 334 334 333 330 328 326 327 327 325 323 322 324 325 326 327 328 328 329 330 330 330 331 331 331 330 329 328 328 328 328 327 327 326 324 322 318 314 312 312 314 316 317 317 317 318 319 320 321 322 323 323 323 323 323 322 322 322 322 323 323 322 322 321 321 322 323 322 321 321 323 324 323 323 323 322
337 337 337 337 337 337 336 336 336 335 335 334 333 331 329 328 328 328 328 326 323 322 322 324 325 326 327 328 328 329 329 330 330 331 330 330 329 328 328 328 329 328 327 325 323 321 317 314 312 313 314 316 316 317 317 318 319 321 321 322 323 323 323 323 323 322 321 322 322 322 323 322 322 322 322 322 323 323 322 322 322 323 323 322 322
335 335 336 336 336 337 337 337 336 336 335 335 334 332 330 330 329 329 329 328 327 324 321 319 322 324 325 326 327 328 328 330 330 330 331 330 330 329 328 328 329 329 328 326 324 322 319 318 316 315 314 316 317 317 317 318 319 321 321 321 321 322 322 322 322 321 320 321 322 322 322 322 322 322 323 322 322 323 323 323 322 322 322 323 322
333 334 335 335 336 337 337 337 337 337 336 335 335 333 331 330 330 329 329 328 328 327 323 320 323 325 324 324 326 327 327 329 330 330 331 331 330 330 330 330 330 329 328 327 325 323 321 320 320 319 318 317 318 318 319 319 320 321 321 320 320 319 319 319 320 319 319 320 321 322 322 322 322 323 323 323 322 322 323 323 323 322 322 323 323
332 332 333 334 335 335 336 337 337 336 336 335 335 333 332 331 330 330 329 329 328 328 326 324 326 327 326 324 324 326 326 328 330 331 330 331 331 331 331 330 330 329 329 328 326 325 323 322 322 322 321 320 320 320 321 321 321 321 321 321 320 319 319 319 319 319 320 320 321 322 322 323 323 323 323 322 322 322 322 322 322 322 322 322 323
331 331 332 332 334 334 335 336 336 336 336 335 334 333 332 331 331 330 330 329 328 328 328 327 326 327 328 326 324 325 325 327 330 331 330 331 331 331 331 330 330 329 329 328 327 326 325 324 324 323 323 322 322 321 322 322 322 322 322 321 320 319 319 320 321 321 321 321 321 321 321 322 323 323 323 322 322 322 322 321 322 322 322 322 322
330 330 330 331 332 333 334 334 335 336 336 335 334 333 332 331 331 331 330 330 328 328 327 328 327 327 328 327 325 324 325 327 329 330 331 331 331 331 331 330 330 329 329 328 327 326 326 325 325 324 323 323 322 322 322 322 322 322 322 321 320 319 320 321 321 322 322 321 322 321 321 322 322 323 323 322 322 322 322 321 321 321 322 322 322
330 330 331 330 331 332 333 334 333 334 335 335 334 333 332 332 331 331 330 330 329 328 328 328 327 327 327 327 327 325 325 326 328 329 330 331 331 330 330 330 330 329 329 328 328 327 326 326 325 325 324 324 323 322 322 321 321 322 321 320 320 320 320 321 321 322 322 322 322 322 322 322 321 321 321 321 322 322 322 321 321 321 322 322 321
331 331 331 331 331 331 332 333 333 333 334 334 334 333 332 332 332 331 330 330 329 328 328 328 328 328 327 327 327 327 327 327 327 328 329 330 330 329 329 329 329 329 329 328 327 327 326 326 326 325 325 324 323 322 322 321 322 323 323 322 321 321 321 321 321 322 322 322 321 321 321 321 321 321 321 321 321 321 322 322 322 321 322 322 321
330 331 331 331 332 332 332 332 332 332 333 333 333 332 332 332 331 331 330 330 329 329 329 329 328 328 328 327 327 327 328 327 327 327 328 329 329 328 328 328 329 329 328 327 326 326 326 326 326 325 325 325 324 323 322 321 321 323 324 324 323 322 322 322 322 322 322 322 321 320 321 321 322 322 322 321 321 321 321 321 322 322 321 322 321
330 331 331 332 332 332 332 332 332 332 332 332 332 332 332 332 331 331 331 330 329 329 329 329 328 327 328 327 327 327 327 327 327 327 327 327 328 328 328 328 328 328 328 327 326 325 325 325 325 325 325 325 324 324 323 322 321 322 322 322 322 322 322 322 322 322 323 322 319 320 321 322 322 323 323 323 322 322 322 322 322 322 322 322 321
331 331 331 332 332 332 332 332 332 332 332 332 332 332 331 331 331 330 330 330 329 329 329 329 328 327 327 327 327 327 327 327 327 327 327 327 327 327 328 328 328 328 327 326 326 325 325 325 325 325 325 325 324 324 323 322 322 322 321 321 320 320 320 320 321 321 320 319 318 320 322 322 322 323 323 323 323 322 322 322 322 322 322 322 322
331 331 332 333 333 333 333 332 333 332 332 332 331 331 330 330 330 330 330 329 329 329 329 329 328 327 327 326 326 326 326 327 327 327 327 327 327 326 326 327 327 327 326 326 326 325 325 325 324 324 324 324 324 323 323 323 322 322 321 321 320 320 320 320 320 320 320 319 319 320 321 322 322 323 323 323 323 323 323 323 323 323 322 322 322
332 332 333 333 333 333 333 333 333 332 332 331 331 330 330 329 329 329 329 329 328 328 328 328 328 328 327 326 326 326 325 325 326 327 327 327 326 326 326 325 326 327 326 326 325 325 325 325 324 324 324 323 323 322 322 323 322 321 321 321 321 320 321 321 322 321 321 321 321 321 321 322 322 323 323 324 324 324 323 323 323 323 323 323 323
332 332 333 332 332 333 333 333 332 332 332 332 331 331 330 330 329 329 329 328 328 328 328 328 328 328 327 327 326 326 325 323 325 326 326 327 326 326 326 325 325 325 326 326 325 325 325 325 324 323 323 323 322 322 322 322 321 320 320 320 320 321 321 320 322 322 321 322 322 322 322 322 323 323 324 324 324 324 324 323 323 323 324 323 323
332 332 332 332 332 333 333 333 332 332 332 331 331 331 331 330 330 329 328 328 328 327 327 327 327 327 327 327 326 326 326 324 324 324 326 326 326 326 326 326 325 325 325 325 325 325 325 324 324 323 323 322 322 322 322 322 321 321 321 320 321 323 323 320 319 321 320 321 322 322 323 323 324 324 324 324 324 324 324 323 323 323 324 324 324
331 332 332 332 332 332 332 332 333 332 332 332 331 331 330 330 329 329 328 328 327 327 327 327 326 327 327 326 326 326 326 325 324 324 324 325 325 326 326 326 325 324 324 324 324 324 324 324 324 324 323 322 322 321 322 322 322 322 321 321 319 321 327 321 315 318 318 319 320 320 321 322 322 323 323 324 323 323 323 322 322 323 323 323 324
330 331 332 332 332 332 332 332 332 332 332 331 331 331 330 329 328 328 327 327 327 327 326 326 326 326 326 326 326 326 326 326 325 324 324 324 325 325 325 325 325 324 324 323 323 323 324 324 323 323 323 322 322 321 322 321 322 322 321 322 322 324 330 322 314 318 317 316 318 317 318 319 319 320 321 321 320 320 320 320 321 322 322 323 323
328 330 331 331 332 332 332 332 332 332 332 332 331 330 329 329 328 327 327 327 326 327 327 326 326 326 326 326 325 326 325 325 325 324 324 324 324 325 325 325 325 324 324 323 323 323 323 323 323 323 323 323 322 321 322 321 322 323 321 322 323 324 325 319 317 324 320 315 316 317 317 318 317 318 318 319 319 319 319 320 321 321 322 323 323
327 328 329 330 331 332 331 332 332 332 332 331 331 330 329 329 328 328 327 327 327 327 327 327 327 326 326 326 325 325 325 325 325 325 324 323 324 324 325 325 324 324 324 323 323 322 323 323 323 323 323 322 322 322 321 321 321 322 322 322 321 321 320 318 320 324 322 319 316 315 317 318 318 319 319 319 319 319 320 320 321 322 322 323 323
326 327 328 329 330 331 331 332 331 332 331 331 331 330 330 329 328 328 327 327 327 327 327 327 326 327 326 326 326 325 325 325 325 325 324 324 323 324 325 325 324 324 324 323 323 322 322 322 323 323 323 322 322 322 321 321 320 320 321 322 322 322 321 321 320 319 320 322 318 316 317 317 318 319 320 320 320 320 321 321 322 322 323 323 322
325 326 327 328 329 330 331 331 331 331 331 331 331 330 330 329 329 328 327 327 327 327 327 327 326 327 326 326 326 325 325 325 325 325 324 324 324 324 324 324 324 324 324 323 323 322 322 322 322 322 323 322 322 322 322 321 321 320 320 321 321 322 322 322 321 319 319 321 321 319 318 317 317 317 317 319 319 320 321 321 322 322 323 323 322
325 326 327 327 329 329 330 331 331 331 331 331 331 330 330 330 329 328 328 327 327 327 327 326 327 327 326 326 326 325 325 325 325 325 325 324 324 324 324 324 324 324 324 323 323 322 322 322 322 322 322 322 322 322 322 322 321 321 320 320 320 320 320 320 321 320 318 318 320 320 318 317 318 317 316 317 317 318 319 320 322 323 323 323 323
323 325 327 327 328 329 329 330 330 330 331 331 331 330 330 330 329 329 328 328 328 327 327 326 326 326 326 326 326 325 325 325 325 325 325 325 324 324 324 324 324 324 324 324 323 322 322 322 322 322 322 322 322 322 322 322 322 321 321 320 320 320 320 320 320 319 319 318 319 320 318 317 317 316 317 317 317 317 317 318 320 322 323 323 323
Wind_Speed
21 21 21 20 19 19 19 20 18 17 16 14 13 12 11 10 9 9 10 11 13 13 10 12 12 12 12 12 13 14 13 13 15 18 18 17 17 16 17 17 17 17 16 16 15 14 14 15 14 15 16 16 17 18 18 18 19 20 20 20 21 21 19 18 17 19 19 18 18 19 18 18 18 17 17 17 19 20 20 19 18 17 17 17 16
25 23 22 20 19 19 20 20 19 17 15 13 12 12 11 9 9 10 11 11 12 13 12 11 11 11 11 11 12 14 14 14 15 17 17 16 16 16 17 16 16 16 15 15 14 14 14 14 14 14 15 16 17 18 18 19 20 20 20 19 19 19 19 17 15 16 18 18 18 18 17 17 16 15 16 16 16 18 18 17 17 17 16 16 15
25 24 23 21 20 20 20 20 19 17 15 13 12 12 10 9 9 10 12 12 12 13 13 11 11 10 10 11 12 14 15 15 15 17 17 16 16 16 16 16 16 15 15 14 13 14 13 13 14 14 15 16 16 18 20 20 20 19 18 16 16 17 18 18 16 16 17 18 18 17 16 15 15 14 14 15 15 16 16 15 15 15 15 14 14
26 25 23 22 21 20 20 20 18 17 15 14 12 11 9 8 9 10 12 12 13 13 13 12 11 10 11 11 11 14 15 15 15 16 16 15 16 16 16 15 15 15 14 13 13 13 13 13 13 13 15 15 16 18 20 18 17 16 15 14 14 15 16 17 17 16 16 17 18 16 14 14 13 13 13 13 13 13 13 13 13 14 14 13 13
27 25 24 23 21 20 20 20 18 16 15 13 12 10 8 8 9 11 13 12 13 13 13 12 11 11 12 11 11 14 15 15 16 15 15 15 16 16 15 15 15 14 13 13 12 12 13 13 12 14 16 16 17 18 17 15 14 14 14 14 12 11 13 15 16 15 14 16 16 13 11 11 12 13 12 11 11 11 11 11 11 12 13 13 13
27 26 25 24 22 21 20 20 18 16 15 13 11 10 9 9 10 12 13 12 13 14 14 13 12 12 12 11 11 13 15 15 15 14 15 15 15 15 15 15 14 13 13 12 12 12 12 12 12 16 19 18 18 17 14 12 12 14 14 15 13 10 10 13 14 14 13 13 13 11 11 11 11 12 11 11 11 11 10 10 10 11 11 13 12
27 27 25 24 23 22 21 20 18 16 15 13 11 10 10 11 12 13 13 12 13 14 14 14 13 13 12 11 12 12 14 15 14 15 15 15 15 14 14 14 14 13 12 12 12 12 12 12 12 16 19 18 17 15 13 12 13 14 15 16 15 13 11 11 12 12 11 12 11 10 10 11 12 12 10 10 10 10 10 10 10 10 11 12 11
28 27 25 24 23 22 21 20 18 16 14 13 12 10 11 12 13 14 13 13 13 14 14 14 13 12 12 12 12 13 14 15 15 15 15 14 14 13 14 13 13 13 12 12 11 11 12 11 12 14 17 17 16 15 13 13 14 15 16 17 17 15 13 11 10 9 8 10 10 8 9 10 10 11 9 10 10 10 10 10 10 10 10 11 11
29 26 25 24 23 22 21 20 18 16 15 13 13 12 12 14 14 13 13 13 13 14 14 14 13 12 12 12 12 13 13 14 15 15 14 14 13 13 13 12 13 12 12 12 11 11 11 11 11 13 16 16 16 15 14 13 14 15 16 17 16 14 12 10 9 7 7 7 7 7 7 8 9 10 9 9 10 9 10 10 10 10 10 10 10
29 27 26 24 23 22 21 20 18 16 14 14 13 13 13 14 16 14 13 13 14 14 13 13 13 12 13 12 12 13 12 13 15 14 14 14 13 12 12 12 12 12 12 11 11 11 11 11 10 12 16 16 16 15 14 13 13 15 15 16 16 13 11 9 9 8 7 6 6 5 5 6 6 8 8 8 9 10 10 10 10 10 9 9 8
28 27 26 24 23 22 21 20 18 16 14 14 13 13 14 14 18 16 14 14 14 14 13 13 13 13 13 12 11 12 13 14 15 14 14 14 13 13 12 12 11 11 11 11 11 11 10 10 10 11 15 16 16 15 14 13 13 13 14 14 13 12 9 8 7 7 7 6 6 6 4 5 5 6 8 8 8 9 9 9 8 8 8 7 7
28 27 25 24 23 21 21 19 18 17 15 14 13 14 14 16 20 18 15 15 14 14 14 13 13 14 13 11 10 11 13 14 14 14 14 14 13 13 13 11 10 11 11 11 10 10 10 10 9 10 13 15 15 15 13 12 12 12 12 11 11 10 9 7 6 5 5 6 6 7 5 5 5 5 7 8 7 7 7 7 7 7 7 7 7
28 26 24 23 22 21 20 19 18 18 16 15 13 14 14 17 19 18 17 15 15 15 14 14 13 15 14 11 10 10 12 14 14 14 14 14 13 13 12 11 10 11 11 11 10 10 9 9 9 9 12 14 14 14 13 11 11 10 9 9 9 9 7 6 5 4 4 5 6 7 6 6 6 6 6 6 7 7 7 6 6 6 6 6 6
27 26 24 22 21 21 20 19 18 18 17 15 14 14 14 17 18 19 19 16 16 15 15 14 14 15 14 11 10 10 12 14 14 13 13 14 13 13 13 12 10 10 11 10 10 9 9 8 8 9 10 12 13 12 12 11 10 9 9 8 7 8 7 4 3 2 2 4 5 6 6 6 6 6 5 5 6 6 6 5 5 5 5 5 5
25 25 23 22 21 22 20 19 18 18 17 15 15 15 15 17 17 19 21 17 16 16 15 15 14 16 14 12 11 9 11 13 13 13 13 13 13 12 12 12 11 10 10 10 10 10 9 8 7 8 9 10 10 10 11 11 10 9 9 8 7 7 7 4 2 2 1 2 3 4 6 6 5 5 4 4 4 4 4 4 4 4 4 4 4
22 22 22 22 21 22 20 19 18 18 18 17 16 16 17 18 17 19 22 18 16 17 17 15 15 16 15 13 11 9 10 11 12 14 15 13 13 13 12 12 11 11 10 9 9 9 9 8 7 8 8 8 8 8 9 9 10 10 10 9 6 6 7 4 1 0 1 1 3 3 3 4 3 3 4 3 3 3 3 2 3 3 3 3 3
21 21 21 21 22 22 20 19 18 18 19 18 17 17 18 18 18 19 21 19 16 17 18 17 16 17 16 14 12 10 10 11 12 14 16 15 14 14 13 12 11 11 11 10 9 9 8 8 8 8 8 8 8 7 7 8 9 10 11 9 7 6 6 5 3 2 1 2 3 3 3 2 1 2 3 2 1 2 2 2 2 2 2 2 2
22 22 21 21 22 21 20 19 18 19 19 19 18 18 18 18 18 18 21 20 18 17 17 18 17 18 17 15 13 11 11 11 11 13 15 15 15 15 14 13 12 11 10 10 10 9 9 8 9 9 8 8 7 7 7 7 8 10 11 10 8 7 5 4 3 2 1 3 4 5 5 4 4 1 1 1 1 0 2 1 1 1 2 2 2
22 22 21 21 22 21 20 19 19 19 19 20 19 19 19 19 19 18 19 20 20 19 17 17 17 18 17 15 14 12 12 10 10 11 12 13 14 15 15 14 13 12 11 10 10 10 10 10 10 10 9 8 7 7 7 8 9 10 11 10 9 7 6 4 3 2 2 3 5 6 6 7 7 4 3 2 2 1 1 1 1 1 2 3 3
22 22 22 23 23 22 21 20 20 19 19 20 20 20 20 20 19 19 18 19 20 20 18 17 17 18 18 16 15 13 12 10 10 10 10 10 13 15 15 15 14 13 12 11 11 11 12 11 11 11 9 9 7 7 7 8 9 10 11 10 8 7 6 5 3 4 4 4 6 7 7 8 7 3 4 4 4 3 3 2 2 2 3 4 3
23 23 23 23 24 24 22 21 20 19 18 18 19 20 21 21 20 20 19 18 19 20 19 17 16 17 17 17 16 15 13 12 10 9 9 9 11 14 15 16 15 14 13 12 12 12 12 12 11 10 10 9 8 7 7 8 10 10 10 9 7 6 5 5 4 5 5 5 6 7 7 7 6 2 5 4 5 4 5 3 3 3 3 5 4
25 25 24 25 25 25 23 22 21 20 18 18 18 18 21 22 21 20 20 19 18 19 20 19 17 17 18 18 18 16 14 13 11 10 10 9 9 12 14 16 15 15 14 14 14 13 12 12 12 11 11 11 10 9 8 8 10 10 9 8 7 5 4 4 5 5 6 6 7 8 7 7 8 1 6 6 6 6 5 4 4 4 4 5 5
27 28 27 27 27 26 25 23 22 20 20 19 18 18 20 23 22 21 21 20 19 19 20 20 18 17 18 20 19 16 15 14 13 12 11 10 10 10 12 14 15 15 15 15 15 14 12 12 13 13 13 12 11 10 9 9 10 11 10 9 7 6 5 5 6 6 6 6 7 8 7 6 8 2 6 5 6 6 6 5 5 5 5 6 7
30 30 28 28 28 28 27 25 23 22 21 20 20 20 20 22 23 22 22 22 21 20 20 20 19 18 18 20 19 16 16 16 14 14 13 12 12 11 11 12 14 14 15 16 16 15 14 13 14 14 14 13 12 11 11 11 11 11 10 9 8 7 7 6 6 6 6 7 8 8 7 6 7 4 4 5 5 6 6 6 5 5 6 6 7
31 29 28 29 30 29 28 26 24 23 22 22 22 22 21 22 23 23 23 22 22 21 21 20 20 19 18 19 20 18 17 17 17 16 15 14 14 14 13 13 13 14 15 16 17 16 15 15 15 14 14 14 13 12 12 12 12 12 11 10 9 9 9 9 8 7 8 8 9 9 8 7 7 6 4 6 7 6 6 6 5 5 6 6 6
27 29 31 31 31 30 29 26 25 25 23 22 22 22 22 24 24 24 24 24 23 23 22 22 21 21 19 19 20 20 18 19 20 19 17 17 16 16 15 14 14 14 14 15 17 18 18 18 16 15 15 15 15 14 14 14 14 13 12 11 10 10 11 11 10 9 9 11 12 11 9 8 9 8 6 6 8 8 7 7 6 5 6 6 6
28 31 32 31 31 31 30 28 27 26 25 23 22 22 22 23 24 24 24 25 25 24 24 24 23 22 21 20 20 21 21 21 22 20 20 19 19 18 16 16 15 15 14 14 16 17 19 19 18 17 16 16 17 16 16 16 16 15 14 13 11 10 11 12 12 10 10 12 13 12 11 10 10 10 9 8 7 9 10 9 8 8 7 7 7
29 30 31 32 33 32 31 30 29 29 28 26 25 24 23 22 23 23 24 24 26 26 26 25 24 24 23 22 21 21 22 23 23 22 22 22 21 20 19 18 18 16 16 16 17 18 19 20 20 19 19 18 18 18 18 18 17 17 16 15 14 13 12 13 13 13 13 13 13 12 12 13 13 12 12 11 9 9 10 12 12 11 10 9 9
29 31 31 32 34 34 33 33 32 31 30 29 28 27 25 24 24 25 25 23 24 26 26 26 26 26 25 24 23 23 24 25 25 24 24 24 24 22 22 22 21 19 18 17 18 19 20 20 21 21 20 20 20 20 20 19 19 18 17 17 16 16 16 16 16 16 16 16 15 14 14 14 14 14 13 13 11 10 10 12 14 14 13 12 12
32 33 32 34 34 34 35 35 34 33 31 31 31 30 28 27 27 27 26 24 23 23 24 26 25 26 27 27 26 25 26 26 26 26 26 26 25 25 24 24 23 22 20 19 19 19 20 20 21 21 21 21 22 21 20 20 20 19 18 18 18 18 18 19 19 19 18 18 18 17 16 16 16 16 15 15 14 13 12 12 13 15 16 15 14
33 33 35 35 34 35 37 37 35 34 33 33 33 32 31 30 29 27 27 26 24 22 23 25 24 23 25 27 28 27 27 27 27 27 27 26 26 27 26 25 25 24 22 21 20 20 21 21 21 20 21 22 22 21 21 21 21 21 20 20 19 19 20 20 21 20 18 18 19 18 17 18 18 18 18 17 16 15 14 14 13 14 15 15 15
34 36 37 36 35 36 37 37 37 36 35 36 35 35 34 33 31 29 29 27 25 24 24 25 25 24 23 24 28 29 28 28 28 28 27 28 28 28 27 27 27 25 23 23 22 21 22 22 21 20 20 21 22 22 22 23 23 23 22 22 21 21 21 20 21 21 19 19 20 20 20 20 20 21 20 19 18 17 16 15 15 14 14 14 15
39 39 37 36 37 36 37 37 37 37 37 37 37 36 36 35 34 32 31 28 27 27 26 26 26 26 24 24 26 29 30 30 29 29 28 29 29 29 29 29 28 25 24 24 23 23 23 23 22 21 21 22 23 24 23 25 26 26 25 24 23 23 22 21 21 20 20 20 20 21 22 22 22 22 22 22 21 19 18 17 16 16 15 15 15
39 37 36 37 38 37 37 37 37 39 38 38 37 38 37 36 36 34 32 31 29 29 29 28 27 27 27 25 26 28 30 31 31 30 29 30 30 30 31 30 29 26 25 25 25 25 25 25 25 24 24 25 26 27 26 27 28 28 28 27 25 24 23 22 22 22 22 21 21 22 23 23 24 24 24 24 24 22 21 19 18 17 17 16 16
36 35 38 38 38 38 38 38 38 40 40 40 40 39 39 38 37 36 34 32 31 32 31 30 29 29 29 28 28 29 30 31 31 32 32 32 32 32 32 32 30 28 27 27 27 27 27 27 27 27 27 28 29 29 28 28 28 29 29 29 27 25 25 25 25 24 24 24 24 24 24 25 25 26 26 26 26 25 24 22 20 19 19 18 18
37 38 38 37 38 38 38 39 39 40 41 42 41 41 40 39 38 37 36 34 33 34 34 32 31 31 31 31 31 31 31 32 32 33 34 34 35 35 35 33 31 30 29 29 29 30 30 30 30 30 30 31 31 30 30 30 30 30 29 29 29 28 27 27 28 27 27 26 26 27 27 27 26 26 27 27 27 27 26 25 23 22 21 20 20
39 39 38 37 38 39 39 40 40 41 42 42 42 42 41 40 39 38 37 36 35 35 35 34 33 33 33 34 33 33 34 34 34 35 37 37 37 38 37 34 33 32 32 31 32 33 32 33 33 32 32 32 32 32 31 31 31 31 31 31 31 31 31 30 29 29 29 29 29 29 29 29 28 28 28 28 28 28 27 27 26 25 24 23 22
40 40 39 38 39 39 40 41 42 41 42 43 43 42 41 40 39 39 38 38 38 37 37 36 36 37 37 38 37 36 37 37 37 37 38 39 39 39 38 36 34 33 34 34 34 34 34 34 34 34 33 33 33 33 32 31 30 31 32 33 33 33 33 33 32 31 32 34 33 31 31 30 30 30 30 29 29 30 30 29 28 27 27 26 25
39 40 40 38 38 38 40 42 42 41 42 42 41 41 40 40 39 39 39 39 40 39 38 39 39 40 41 41 40 40 40 39 39 38 39 40 40 41 41 39 37 35 35 36 35 35 35 35 35 35 34 34 34 33 33 31 30 30 31 32 32 33 34 34 34 35 35 36 35 33 32 32 32 32 32 31 31 31 31 31 30 30 29 28 28
40 40 40 39 38 39 39 41 42 42 41 40 39 39 38 38 38 37 39 41 42 42 42 42 41 42 43 42 42 42 42 42 41 41 41 41 41 42 42 41 41 38 36 37 38 38 37 36 35 35 33 33 34 34 33 31 30 30 31 33 33 31 31 32 33 34 35 36 35 34 34 35 35 34 34 33 32 32 32 32 32 32 31 30 29
37 38 39 40 42 41 41 42 43 42 41 41 41 41 40 38 37 39 42 43 43 43 44 44 44 44 44 43 43 43 43 44 45 43 42 42 42 42 42 42 42 42 40 39 39 38 38 37 35 34 34 33 33 33 32 30 26 25 25 28 31 31 31 31 32 33 35 35 35 36 36 36 37 37 36 35 34 34 34 33 33 33 32 31 30
37 39 40 44 45 44 43 44 43 42 43 44 43 43 44 42 42 44 45 43 43 44 46 47 47 45 44 44 44 44 44 45 45 45 44 43 43 43 43 42 43 43 42 40 39 38 38 37 35 34 33 34 33 32 30 26 21 19 16 14 18 23 26 29 33 36 37 37 37 38 38 38 39 39 37 37 36 36 36 35 34 34 33 32 31
38 39 42 44 44 43 44 44 43 44 46 47 46 46 47 46 46 44 42 40 40 43 45 44 43 42 43 43 44 45 45 44 45 45 44 45 45 45 45 43 43 43 42 41 40 39 38 38 37 35 33 31 32 31 29 27 23 16 10 7 6 8 11 17 26 33 36 38 39 40 40 40 40 39 38 38 38 38 37 36 35 35 34 33 32
35 37 41 42 41 42 44 44 44 45 47 48 49 50 47 44 43 40 37 36 36 37 39 40 39 40 41 43 44 46 45 45 45 45 46 46 46 46 45 44 43 42 41 41 40 40 40 39 38 37 33 29 29 31 31 31 28 18 7 3 1 2 5 7 12 20 26 30 34 37 39 40 40 39 39 39 39 39 38 37 36 35 34 33 32
35 38 42 42 42 44 45 45 44 46 47 48 50 47 42 39 37 34 31 31 32 32 34 38 40 40 43 46 48 47 46 47 47 47 47 47 47 46 45 44 43 41 41 41 41 41 40 40 38 37 36 34 31 28 28 30 33 30 19 8 2 0 4 4 4 10 14 18 22 26 30 33 34 35 36 37 37 36 36 35 35 34 34 33 32
37 41 43 43 43 44 46 46 45 46 47 48 47 43 40 39 36 34 32 31 32 34 40 43 43 46 49 50 49 48 48 49 48 48 48 48 47 47 45 45 43 41 41 42 41 40 40 39 38 38 39 39 34 27 26 27 30 35 34 27 17 10 5 1 1 4 7 12 16 18 21 24 27 29 31 32 32 31 31 31 32 32 32 31 31
39 43 43 42 43 44 45 46 47 47 48 48 45 42 41 40 40 40 40 37 35 41 48 47 44 47 48 46 45 47 48 49 49 48 49 49 48 47 46 45 44 43 42 41 42 41 40 40 39 39 39 38 35 32 30 26 25 31 38 39 36 29 19 10 4 3 6 9 12 14 16 18 21 24 28 29 29 29 29 29 30 30 30 30 30
41 42 41 41 43 46 47 47 47 47 48 47 45 44 45 44 43 43 41 41 42 46 46 41 40 42 41 42 43 44 46 47 48 48 48 49 49 48 47 45 45 45 42 42 43 42 40 39 38 39 40 38 37 38 34 28 26 28 32 36 38 36 33 26 19 11 5 6 10 11 14 17 19 22 25 26 28 28 28 29 30 30 30 30 30
41 42 43 44 45 47 48 46 46 47 48 47 44 45 47 47 45 43 41 42 45 46 40 33 35 37 38 40 40 41 43 45 47 48 47 48 48 48 48 47 47 45 43 44 44 43 41 40 39 39 40 40 40 40 37 33 32 30 27 29 32 32 31 30 28 21 11 8 10 9 9 12 16 21 24 25 26 28 29 30 30 31 30 30 30
40 43 44 44 44 44 45 44 45 46 47 46 44 45 48 47 45 42 42 43 44 43 37 31 32 34 36 38 38 40 41 43 46 47 47 48 48 48 47 48 48 46 45 45 44 44 43 43 42 41 41 41 41 40 40 38 35 33 29 27 27 25 21 19 22 23 16 12 12 11 10 8 10 17 21 23 25 26 28 29 31 32 31 31 31
38 41 41 41 41 42 42 43 45 46 46 45 45 46 47 47 46 45 45 46 45 42 37 35 34 34 36 38 38 39 40 42 43 44 47 48 47 47 48 48 47 45 46 46 46 46 45 44 43 41 41 42 41 40 41 40 36 34 33 31 31 28 23 20 21 22 17 12 10 11 15 12 12 18 20 19 22 23 25 27 30 32 33 33 33
Wind_Direction
165 159 157 157 158 156 155 155 150 148 142 139 138 134 131 123 120 120 119 120 121 122 122 117 113 111 108 105 102 101 100 96 97 102 103 102 102 102 101 100 99 98 97 96 95 95 94 93 93 92 90 91 91 90 93 93 93 91 89 86 83 81 79 79 82 84 83 82 82 82 82 81 81 81 81 76 71 67 65 66 68 71 73 75 75
163 159 158 157 159 157 157 156 152 149 143 143 142 138 132 125 126 126 126 126 127 127 127 123 117 113 109 104 105 106 105 101 101 105 105 104 105 104 103 101 101 99 98 98 98 98 96 96 95 94 93 95 95 96 97 96 94 93 91 87 84 85 84 84 87 92 90 87 86 84 81 80 80 80 81 81 80 77 71 67 66 65 67 69 70
158 159 158 156 158 157 158 156 153 149 145 147 147 141 131 126 128 129 131 130 131 132 133 129 121 118 113 109 109 110 109 109 106 109 110 111 110 105 105 104 103 102 102 102 102 101 99 100 99 98 99 101 102 103 102 99 96 93 91 86 85 91 91 89 89 94 96 95 93 89 86 84 80 78 76 78 82 83 81 75 71 69 67 66 66
160 159 157 158 160 159 159 157 154 151 150 153 151 144 132 130 133 134 133 132 136 137 137 133 130 125 118 116 114 114 114 114 111 112 114 115 113 106 106 106 106 105 105 104 103 103 102 103 102 104 105 105 109 110 107 101 98 93 89 86 89 96 96 94 91 92 97 98 93 90 90 85 81 78 74 73 77 80 80 79 77 74 72 68 66
161 159 159 159 161 161 160 157 156 155 154 156 155 146 136 137 139 137 134 137 140 140 141 141 141 132 124 123 118 116 117 118 115 116 115 114 114 112 111 109 108 106 107 107 106 107 106 104 103 114 116 116 119 117 111 102 96 90 84 82 91 105 104 99 93 89 93 98 93 88 85 78 78 78 74 68 68 75 76 78 78 77 77 74 69
162 160 162 161 162 162 161 160 159 158 157 158 157 149 144 144 141 135 134 140 144 145 149 149 143 133 128 124 118 118 121 123 120 120 118 115 115 115 114 111 110 109 110 108 106 106 106 105 107 121 125 125 125 121 115 104 94 87 81 83 96 113 114 106 97 89 89 99 98 89 79 72 72 70 68 62 59 68 75 77 77 78 82 83 78
164 162 164 163 163 164 163 163 161 161 158 158 159 154 150 147 140 134 133 141 145 152 156 148 139 134 132 126 122 124 125 126 125 125 121 118 117 117 116 114 113 110 110 108 108 109 108 108 109 122 129 129 127 124 119 108 97 89 85 90 100 110 112 109 104 95 91 101 103 95 80 72 70 64 61 63 62 64 70 74 76 80 84 89 84
165 164 165 165 165 166 167 164 162 163 161 158 159 155 153 149 140 136 138 145 149 154 154 144 139 135 131 130 128 127 128 129 130 129 126 123 122 119 118 120 119 115 114 112 112 113 111 112 112 122 132 132 131 129 123 111 100 92 92 95 99 105 106 103 104 103 97 102 106 100 84 71 69 67 57 60 67 68 70 74 78 82 85 86 82
166 166 166 167 167 167 169 166 166 167 164 158 158 154 155 152 144 143 146 151 155 156 155 146 140 134 133 136 132 130 133 134 133 132 131 129 127 125 125 124 122 120 119 117 116 115 114 115 116 125 134 136 136 133 125 115 104 98 99 98 97 99 101 97 98 101 97 102 99 94 85 66 65 69 60 56 65 73 75 77 81 84 83 82 80
167 168 167 170 169 171 172 170 170 169 167 161 160 158 158 158 150 148 155 158 161 161 159 152 144 141 141 138 133 136 140 139 137 137 136 133 133 132 129 125 124 125 122 120 119 117 117 118 120 129 138 141 140 137 131 121 111 105 104 102 97 94 95 96 96 96 92 91 80 74 71 56 62 75 68 60 61 70 75 76 81 82 83 83 83
169 170 171 173 172 174 175 175 174 168 168 165 164 164 161 162 153 152 166 167 164 164 161 158 153 150 146 137 133 139 142 142 142 141 140 139 140 137 132 131 133 130 125 124 123 122 121 121 123 131 142 145 143 142 137 129 118 111 110 110 105 98 96 98 99 97 88 76 65 57 50 44 59 82 80 72 62 63 70 76 82 83 86 88 87
171 173 175 177 177 179 179 180 178 170 170 169 169 168 164 163 156 156 171 173 169 167 165 165 162 156 151 143 138 140 143 146 146 145 145 145 145 141 138 141 144 138 133 132 129 127 127 127 127 134 145 149 148 147 143 137 127 119 118 118 117 109 100 99 98 94 84 68 59 54 53 51 52 67 79 83 76 67 68 73 80 87 89 88 87
173 176 179 182 182 185 186 186 184 177 176 175 173 171 166 164 161 164 171 172 171 172 171 171 168 161 157 151 145 140 143 147 150 151 152 151 148 146 143 143 145 144 140 136 134 134 133 133 134 134 143 150 152 151 150 147 138 131 129 129 132 128 111 99 92 83 78 65 56 52 52 57 56 57 64 77 81 74 71 70 73 83 87 88 88
175 179 181 186 188 190 190 188 187 182 182 182 178 174 169 166 168 172 172 172 174 175 175 175 171 167 166 159 151 145 145 152 156 158 157 154 152 152 151 148 148 147 144 142 140 140 139 139 141 136 136 144 151 156 158 158 152 144 140 143 144 142 127 105 100 87 66 55 51 47 46 54 57 54 56 64 74 75 74 75 75 75 80 85 89
178 180 183 188 190 191 191 189 188 185 186 187 183 179 172 171 175 176 175 177 177 176 176 178 176 173 174 166 157 153 151 158 162 161 160 158 158 158 157 153 153 152 149 150 150 149 147 145 145 140 136 141 147 155 162 166 166 159 152 150 146 143 139 120 103 102 61 37 36 39 45 53 49 43 54 59 67 78 77 81 85 81 86 94 96
182 183 185 189 190 190 190 190 190 188 189 190 189 184 177 178 181 179 179 180 179 180 177 179 181 176 178 172 163 161 158 163 166 165 163 163 164 164 162 160 160 160 156 156 159 156 154 156 155 148 144 145 148 153 157 165 173 173 165 157 151 144 147 150 150 317 327 347 7 14 35 51 51 39 44 52 61 82 82 75 87 96 100 100 103
185 186 188 190 190 189 190 191 192 191 192 195 195 188 184 185 184 181 183 184 182 182 179 181 184 180 180 178 171 169 166 165 166 168 167 168 171 169 167 167 169 169 165 165 165 160 161 169 167 159 154 152 152 154 153 159 170 176 172 166 162 157 160 173 207 249 286 304 332 334 330 355 29 44 34 31 41 93 99 67 57 107 121 109 113
187 190 193 193 191 191 192 193 194 193 195 198 198 192 190 191 190 186 186 189 188 184 182 183 183 182 184 182 178 176 173 169 166 169 173 176 177 174 172 173 176 175 173 174 172 166 174 183 177 170 165 162 158 155 154 159 168 174 175 173 169 171 174 173 190 221 276 300 308 314 308 308 305 287 342 343 327 93 128 114 50 131 163 151 142
189 193 196 197 194 194 195 195 196 195 197 199 199 196 196 197 197 195 191 193 194 191 187 186 185 185 187 185 183 178 175 176 173 172 175 181 182 180 178 178 181 181 179 179 176 176 187 192 183 178 175 171 166 158 156 162 167 168 173 175 173 177 178 170 182 221 262 305 307 311 308 312 307 272 223 261 282 267 216 182 202 228 205 190 169
190 196 197 198 198 198 198 197 198 197 200 201 202 200 199 201 202 202 199 197 199 199 195 192 190 189 190 189 189 182 177 183 183 181 178 179 185 187 186 184 186 190 186 181 182 187 195 198 190 186 182 178 173 162 157 163 167 166 171 177 180 183 180 180 205 229 242 293 313 320 317 324 322 252 207 240 251 249 242 221 227 239 220 211 187
192 197 198 199 199 201 201 199 200 201 204 204 205 204 201 204 206 206 206 204 203 204 202 199 196 192 194 196 194 186 184 191 191 191 188 184 187 191 195 192 193 197 193 184 189 197 199 200 197 193 187 186 183 168 159 163 169 168 170 176 181 184 183 186 207 229 240 271 303 323 324 338 345 212 192 230 236 241 241 226 236 235 221 219 197
193 196 200 201 201 202 202 202 204 205 208 209 208 206 204 206 209 210 210 210 207 207 206 204 202 196 196 202 201 194 192 199 202 202 201 199 196 196 201 201 201 202 197 190 196 205 204 202 203 200 195 194 193 180 166 166 172 173 175 183 189 196 200 200 212 239 254 266 287 314 324 341 353 237 193 221 228 232 238 223 230 232 220 219 202
194 197 200 202 204 204 203 205 208 209 211 212 213 210 207 208 210 212 213 213 212 211 209 208 206 203 200 202 205 203 200 204 211 216 214 211 209 206 206 208 208 207 203 199 203 209 209 207 207 207 204 202 200 192 180 174 176 179 185 193 200 212 223 217 223 249 263 271 284 306 315 328 348 328 197 219 231 228 231 221 225 230 224 219 208
197 199 200 202 206 206 206 208 211 214 214 215 215 213 212 212 212 213 214 214 215 215 214 212 210 208 204 202 206 209 207 210 217 221 219 214 213 210 210 212 211 209 208 208 210 214 215 213 213 212 209 207 207 203 197 189 182 187 196 203 210 220 230 232 233 249 259 273 284 295 304 309 336 334 222 228 242 237 232 229 227 228 226 222 216
199 200 202 203 206 207 209 210 212 214 215 217 217 216 215 215 216 215 216 217 217 217 218 217 214 213 209 206 208 211 212 216 220 220 217 217 217 213 210 211 212 212 210 213 216 218 220 219 219 218 212 210 214 214 212 204 195 196 205 214 225 231 234 234 235 244 249 264 276 279 288 296 311 319 284 244 244 245 237 237 234 229 231 227 224
200 201 204 205 206 208 210 211 212 212 214 218 219 219 217 217 219 219 219 219 219 220 220 220 219 218 214 210 208 211 216 219 220 219 217 219 222 220 217 214 216 218 218 220 221 222 224 223 224 223 217 215 219 221 221 218 212 212 217 224 233 237 237 234 235 243 248 254 263 270 275 286 295 298 297 270 248 244 240 237 234 236 243 241 235
203 205 207 207 208 209 211 212 213 213 213 217 219 220 218 217 218 220 223 222 222 222 222 223 223 222 220 215 211 212 215 217 219 219 219 220 223 226 227 225 223 225 229 231 230 229 228 227 227 225 222 222 224 225 226 226 224 225 226 229 233 236 235 233 236 243 251 252 254 260 265 275 287 285 286 284 263 251 244 236 237 243 247 250 251
207 210 209 209 210 211 212 213 216 217 216 216 217 218 218 218 217 220 224 225 226 225 225 226 226 226 224 221 219 218 218 219 220 221 222 223 225 227 230 232 232 233 236 237 238 236 233 232 230 227 225 226 228 227 229 231 231 233 234 235 236 236 237 237 241 245 249 251 250 253 260 270 278 278 279 280 274 261 249 239 239 244 245 248 250
212 214 213 213 213 212 213 215 217 219 218 218 218 219 217 218 219 220 223 226 228 229 230 229 229 230 228 227 225 224 222 222 223 223 224 226 228 229 231 234 236 237 237 238 239 238 236 234 233 231 229 229 231 230 231 233 234 236 238 239 240 241 243 244 246 248 248 248 249 252 257 266 270 273 275 276 274 264 254 246 241 242 242 245 245
216 218 217 217 216 214 215 216 218 219 219 219 220 220 218 218 220 220 223 227 230 230 230 229 229 230 231 230 228 227 226 225 226 226 226 229 230 232 234 235 237 237 238 239 240 240 238 236 236 236 234 233 233 233 233 235 236 237 239 241 243 244 246 247 248 249 249 244 245 250 255 260 264 267 269 271 273 267 257 252 250 246 241 242 242
218 219 219 220 219 218 218 219 219 219 219 220 221 221 220 220 221 222 224 228 230 229 228 225 224 227 231 231 228 227 227 228 229 228 228 231 232 234 235 236 237 237 239 241 241 242 242 241 242 242 240 239 239 237 236 237 238 239 241 243 245 247 248 248 247 247 246 241 241 245 249 254 258 262 265 267 270 268 261 256 256 253 246 241 240
218 220 221 221 220 220 221 221 221 221 220 221 222 222 222 222 222 223 224 228 229 227 227 224 221 224 229 230 227 225 225 228 229 230 231 233 234 235 237 237 238 239 240 242 242 243 245 245 246 248 248 247 248 246 243 244 244 243 245 246 250 252 250 248 247 244 243 241 240 244 247 250 254 256 260 264 267 267 265 261 259 257 252 245 239
218 221 222 221 221 222 222 222 222 222 222 223 222 223 223 223 223 224 225 228 227 227 227 225 223 223 225 228 226 222 223 226 228 232 233 234 236 237 238 239 240 241 242 243 243 244 245 246 247 248 249 250 251 251 249 249 247 247 247 249 251 251 251 250 249 247 247 247 246 247 249 250 251 253 256 261 263 264 264 261 258 258 257 250 241
219 220 221 222 223 222 222 223 222 223 224 224 224 224 225 224 224 226 227 228 227 227 227 227 227 224 224 226 224 221 221 224 227 232 234 234 236 238 240 242 243 243 243 243 243 243 243 244 246 246 247 249 252 253 251 250 248 248 248 249 250 248 250 251 252 252 252 253 254 254 253 252 251 251 254 259 261 262 263 260 254 255 257 255 248
219 218 220 222 223 222 221 221 221 223 224 224 225 225 226 226 226 227 228 228 228 229 228 228 228 227 226 225 224 221 221 223 226 230 234 235 237 239 241 243 244 243 244 244 244 244 243 244 245 245 248 250 253 254 253 252 250 249 249 250 250 249 249 251 252 254 254 256 258 259 258 257 255 253 253 256 258 259 260 260 255 252 254 255 253
220 220 221 221 221 222 221 220 221 222 223 224 225 226 227 227 228 228 229 230 230 230 230 230 229 228 228 227 225 224 223 224 227 229 232 235 236 238 241 242 242 242 244 244 244 244 243 245 246 246 248 250 253 255 255 254 251 251 252 252 252 251 251 251 252 253 255 256 258 260 260 258 258 257 255 254 256 258 259 259 258 256 253 253 252
222 223 222 220 220 221 220 220 221 222 223 224 224 225 226 227 228 229 230 231 230 231 231 231 230 229 228 229 227 226 225 225 227 229 230 232 235 237 239 240 241 242 243 244 245 245 245 245 247 248 248 250 253 255 256 255 253 253 254 254 253 253 253 252 252 253 254 255 258 259 257 257 258 258 257 256 256 257 257 258 258 259 257 255 252
224 224 224 223 222 221 220 221 223 223 224 224 224 224 226 227 229 230 232 232 231 232 232 232 231 229 229 229 228 227 226 225 227 227 228 230 234 237 238 239 240 241 242 243 245 246 245 245 247 248 248 249 251 254 257 258 257 258 259 259 257 255 254 253 253 253 254 256 258 257 256 256 257 257 257 257 257 257 257 258 258 258 258 257 254
224 224 224 224 224 222 222 223 223 223 224 225 225 225 226 227 228 230 232 232 232 232 233 233 232 231 230 229 228 228 227 227 227 226 227 229 232 235 238 238 238 240 241 242 243 244 244 244 245 247 248 249 251 253 257 259 261 263 264 265 264 261 258 256 255 255 256 258 258 257 256 256 256 256 257 257 257 257 257 257 257 258 258 257 255
223 223 222 223 223 223 222 223 223 223 223 222 223 223 224 224 225 227 228 229 230 230 231 233 232 232 231 230 228 228 228 229 228 227 227 229 231 234 236 238 237 237 239 239 239 240 240 241 243 245 246 248 251 253 255 258 261 265 268 269 269 266 262 259 258 257 257 257 257 256 256 257 257 256 257 257 258 258 259 259 259 259 259 258 256
222 221 220 221 223 223 221 222 222 221 220 219 219 220 219 219 220 222 224 226 226 227 229 231 231 232 231 230 229 229 230 230 228 228 228 229 231 233 236 237 236 234 236 237 238 239 239 241 243 245 245 246 249 250 250 252 258 263 269 272 271 268 265 262 259 257 257 256 255 256 256 257 257 256 256 257 257 258 259 260 260 260 259 259 257
220 219 220 222 223 222 221 222 221 219 219 219 218 218 219 218 219 221 223 224 224 224 226 229 230 231 230 229 229 230 231 230 229 228 228 229 230 231 233 234 234 233 234 236 238 238 239 240 240 241 242 244 246 248 246 243 244 249 261 279 283 277 268 260 258 257 256 255 255 255 255 256 256 256 256 256 257 258 259 260 260 260 259 259 258
221 220 221 224 222 221 221 222 221 219 220 220 219 220 221 220 221 223 223 223 225 226 228 230 230 230 230 230 230 231 231 230 229 228 228 229 230 230 231 231 232 232 231 233 234 235 236 237 237 237 238 241 244 245 242 237 235 237 247 265 284 297 278 257 254 254 254 254 253 253 253 253 254 256 255 256 256 257 258 260 260 260 260 259 259
221 221 222 223 222 222 222 221 221 221 222 221 221 222 222 222 222 224 225 225 228 230 231 233 232 231 231 231 231 231 230 230 230 229 228 229 229 230 230 230 231 230 230 231 232 232 233 234 234 233 233 235 239 241 240 236 232 224 216 231 219 335 288 262 260 259 256 254 252 252 252 253 254 255 254 254 256 258 259 260 260 260 260 260 260
220 222 223 222 222 223 224 223 222 223 223 223 223 222 220 220 219 221 225 227 229 231 231 232 230 230 231 231 231 230 229 231 231 230 229 229 230 230 231 231 231 230 229 230 232 232 233 232 232 231 230 231 234 239 238 235 231 225 217 208 145 195 252 262 303 282 262 254 253 252 251 252 255 255 255 255 256 258 259 259 259 259 258 258 259
222 224 225 224 223 224 225 224 222 223 224 225 224 220 217 217 214 212 215 217 221 224 226 226 224 224 228 230 230 229 229 230 230 230 230 230 230 231 231 231 231 230 230 231 232 233 233 232 231 230 231 231 232 237 238 234 231 230 227 227 232 237 245 282 350 299 281 263 255 253 250 250 253 255 255 256 257 256 256 256 256 256 256 257 257
226 228 227 226 225 225 226 224 223 223 224 225 222 218 216 217 215 214 214 213 216 223 226 226 224 224 227 228 228 228 228 229 229 229 229 230 230 230 231 231 232 232 231 232 233 233 233 233 232 231 232 232 230 232 237 232 227 230 230 231 237 241 249 258 248 274 309 283 257 249 250 248 248 252 253 254 255 255 254 254 254 254 254 255 255
231 230 228 226 225 226 226 225 224 224 225 224 221 217 216 216 217 218 219 219 221 227 229 227 226 227 227 228 228 228 228 228 228 229 229 229 229 229 229 230 232 233 232 232 233 234 234 234 233 232 232 231 229 231 235 231 226 229 229 230 235 240 244 249 251 252 271 290 278 261 252 251 249 249 251 251 251 252 252 252 252 253 253 253 253
233 231 230 228 227 226 227 226 224 224 225 223 220 218 217 217 218 218 221 224 227 231 234 232 230 228 228 229 228 228 228 228 228 228 228 229 229 228 228 229 231 232 231 233 234 235 234 234 233 232 231 231 231 232 234 233 230 231 229 227 232 237 241 245 248 247 239 247 275 276 248 245 251 249 248 250 250 250 250 250 251 252 254 254 254
234 233 232 230 228 227 227 226 225 225 225 224 221 219 219 218 218 218 221 226 229 233 236 236 233 230 229 230 229 228 227 227 228 228 228 229 229 229 228 228 230 230 231 233 234 234 234 234 233 233 232 232 232 232 234 235 234 234 231 227 227 229 232 239 238 235 233 233 251 272 260 239 254 260 256 252 253 254 252 251 251 251 252 253 253
235 234 233 231 228 228 227 227 227 227 226 224 222 221 220 218 219 219 222 225 228 231 232 233 233 230 229 229 229 228 227 227 228 227 228 229 229 229 230 230 230 230 231 232 233 234 234 234 234 234 234 234 234 233 235 236 236 236 234 230 228 226 223 229 228 219 218 223 233 262 266 256 260 267 267 264 261 260 258 255 252 251 250 250 251